Time,TemperatureF,DewpointF,PressureIn,WindDirection,WindDirectionDegrees,WindSpeedMPH,WindSpeedGustMPH,Humidity,HourlyPrecipIn,Conditions,Clouds,dailyrainin,SoftwareType,DateUTC
2013-01-22 00:00:00,8.4,4.8,30.06,WNW,290,8.0,8.0,85,0.00,,,0.00,Wunderground v.1.15,2013-01-22 05:00:00,
2013-01-22 00:05:00,8.3,4.7,30.05,WNW,295,7.0,15.0,85,0.00,,,0.00,Wunderground v.1.15,2013-01-22 05:05:00,
2013-01-22 00:10:00,8.2,4.9,30.05,WNW,292,7.0,15.0,86,0.00,,,0.00,Wunderground v.1.15,2013-01-22 05:10:00,
2013-01-22 00:15:00,8.0,4.7,30.06,WNW,294,8.0,15.0,86,0.00,,,0.00,Wunderground v.1.15,2013-01-22 05:15:00,
2013-01-22 00:20:00,7.9,4.6,30.06,West,281,8.0,21.0,86,0.00,,,0.00,Wunderground v.1.15,2013-01-22 05:20:00,
2013-01-22 00:25:00,7.7,4.4,30.06,WNW,298,9.0,21.0,86,0.00,,,0.00,Wunderground v.1.15,2013-01-22 05:25:00,
2013-01-22 00:30:00,7.7,4.1,30.06,NNW,327,7.0,15.0,85,0.00,,,0.00,Wunderground v.1.15,2013-01-22 05:30:00,
2013-01-22 00:35:00,7.6,4.0,30.06,NW,322,6.0,15.0,85,0.00,,,0.00,Wunderground v.1.15,2013-01-22 05:35:00,
2013-01-22 00:40:00,7.5,3.9,30.05,NW,317,7.0,7.0,85,0.00,,,0.00,Wunderground v.1.15,2013-01-22 05:40:00,
2013-01-22 00:50:00,7.3,3.7,30.06,West,267,9.0,15.0,85,0.00,,,0.00,Wunderground v.1.15,2013-01-22 05:50:00,
2013-01-22 00:55:00,7.3,3.5,30.06,NW,310,7.0,15.0,84,0.00,,,0.00,Wunderground v.1.15,2013-01-22 05:55:00,
2013-01-22 01:00:00,7.2,3.6,30.06,WNW,298,5.0,15.0,85,0.00,,,0.00,Wunderground v.1.15,2013-01-22 06:00:00,
2013-01-22 01:05:00,6.9,3.3,30.07,WNW,291,6.0,15.0,85,0.00,,,0.00,Wunderground v.1.15,2013-01-22 06:05:00,
2013-01-22 01:10:00,6.7,3.1,30.07,WNW,290,7.0,15.0,85,0.00,,,0.00,Wunderground v.1.15,2013-01-22 06:10:00,
2013-01-22 01:20:00,6.4,2.6,30.07,NW,323,9.0,9.0,84,0.00,,,0.00,Wunderground v.1.15,2013-01-22 06:20:00,
2013-01-22 01:25:00,6.4,2.3,30.07,NW,321,9.0,15.0,83,0.00,,,0.00,Wunderground v.1.15,2013-01-22 06:25:00,
2013-01-22 01:30:00,6.3,2.0,30.08,West,263,8.0,15.0,82,0.00,,,0.00,Wunderground v.1.15,2013-01-22 06:30:00,
2013-01-22 01:35:00,6.2,1.9,30.08,NW,314,7.0,15.0,82,0.00,,,0.00,Wunderground v.1.15,2013-01-22 06:35:00,
2013-01-22 01:45:00,5.7,1.9,30.08,WNW,294,5.0,15.0,84,0.00,,,0.00,Wunderground v.1.15,2013-01-22 06:45:00,
2013-01-22 01:50:00,5.4,1.6,30.09,NW,321,6.0,15.0,84,0.00,,,0.00,Wunderground v.1.15,2013-01-22 06:50:00,
2013-01-22 01:55:00,5.3,1.5,30.09,WNW,297,7.0,15.0,84,0.00,,,0.00,Wunderground v.1.15,2013-01-22 06:55:00,
2013-01-22 02:00:00,5.1,1.3,30.09,West,271,7.0,15.0,84,0.00,,,0.00,Wunderground v.1.15,2013-01-22 07:00:00,
2013-01-22 02:05:00,4.9,0.9,30.09,NW,311,6.0,15.0,83,0.00,,,0.00,Wunderground v.1.15,2013-01-22 07:05:00,
2013-01-22 02:10:00,4.8,0.8,30.09,NW,319,5.0,15.0,83,0.00,,,0.00,Wunderground v.1.15,2013-01-22 07:10:00,
2013-01-22 02:15:00,4.7,0.4,30.09,West,279,6.0,15.0,82,0.00,,,0.00,Wunderground v.1.15,2013-01-22 07:15:00,
2013-01-22 02:25:00,4.4,0.1,30.10,WNW,284,8.0,15.0,82,0.00,,,0.00,Wunderground v.1.15,2013-01-22 07:25:00,
2013-01-22 02:30:00,4.3,0.0,30.10,West,259,7.0,7.0,82,0.00,,,0.00,Wunderground v.1.15,2013-01-22 07:30:00,
2013-01-22 02:35:00,4.2,-0.3,30.10,WNW,301,7.0,8.0,81,0.00,,,0.00,Wunderground v.1.15,2013-01-22 07:35:00,
2013-01-22 02:40:00,4.1,-1.2,30.10,WSW,258,9.0,9.0,78,0.00,,,0.00,Wunderground v.1.15,2013-01-22 07:40:00,
2013-01-22 02:45:00,4.0,-1.6,30.11,NW,319,9.0,10.0,77,0.00,,,0.00,Wunderground v.1.15,2013-01-22 07:45:00,
2013-01-22 02:50:00,3.9,-2.3,30.11,WNW,291,9.0,16.0,75,0.00,,,0.00,Wunderground v.1.15,2013-01-22 07:50:00,
2013-01-22 03:00:00,3.6,-3.1,30.12,WNW,288,10.0,16.0,73,0.00,,,0.00,Wunderground v.1.15,2013-01-22 08:00:00,
2013-01-22 03:05:00,3.4,-3.9,30.12,WNW,292,10.0,16.0,71,0.00,,,0.00,Wunderground v.1.15,2013-01-22 08:05:00,
2013-01-22 03:10:00,3.3,-4.0,30.12,West,265,10.0,10.0,71,0.00,,,0.00,Wunderground v.1.15,2013-01-22 08:10:00,
2013-01-22 03:20:00,2.9,-4.1,30.13,WNW,293,7.0,15.0,72,0.00,,,0.00,Wunderground v.1.15,2013-01-22 08:20:00,
2013-01-22 03:25:00,2.9,-4.4,30.12,NW,316,9.0,15.0,71,0.00,,,0.00,Wunderground v.1.15,2013-01-22 08:25:00,
2013-01-22 03:30:00,2.8,-4.5,30.13,WNW,294,9.0,9.0,71,0.00,,,0.00,Wunderground v.1.15,2013-01-22 08:30:00,
2013-01-22 03:35:00,2.7,-4.6,30.13,West,273,7.0,15.0,71,0.00,,,0.00,Wunderground v.1.15,2013-01-22 08:35:00,
2013-01-22 03:40:00,2.6,-4.4,30.13,West,271,8.0,15.0,72,0.00,,,0.00,Wunderground v.1.15,2013-01-22 08:40:00,
2013-01-22 03:50:00,2.4,-4.6,30.13,NW,306,9.0,9.0,72,0.00,,,0.00,Wunderground v.1.15,2013-01-22 08:50:00,
2013-01-22 03:55:00,2.3,-4.4,30.13,NNE,22,8.0,15.0,73,0.00,,,0.00,Wunderground v.1.15,2013-01-22 08:55:00,
2013-01-22 04:00:00,2.1,-4.3,30.13,West,259,7.0,19.0,74,0.00,,,0.00,Wunderground v.1.15,2013-01-22 09:00:00,
2013-01-22 04:05:00,2.0,-4.1,30.13,WSW,250,8.0,19.0,75,0.00,,,0.00,Wunderground v.1.15,2013-01-22 09:05:00,
2013-01-22 04:10:00,1.9,-4.2,30.13,West,281,8.0,8.0,75,0.00,,,0.00,Wunderground v.1.15,2013-01-22 09:10:00,
2013-01-22 04:15:00,1.9,-4.2,30.14,WNW,292,7.0,15.0,75,0.00,,,0.00,Wunderground v.1.15,2013-01-22 09:15:00,
2013-01-22 04:20:00,1.9,-4.5,30.14,West,263,8.0,8.0,74,0.00,,,0.00,Wunderground v.1.15,2013-01-22 09:20:00,
2013-01-22 04:25:00,1.9,-4.8,30.14,NNW,336,9.0,9.0,73,0.00,,,0.00,Wunderground v.1.15,2013-01-22 09:25:00,
2013-01-22 04:35:00,1.8,-4.9,30.14,NW,304,7.0,15.0,73,0.00,,,0.00,Wunderground v.1.15,2013-01-22 09:35:00,
2013-01-22 04:40:00,1.7,-4.7,30.14,WNW,300,7.0,7.0,74,0.00,,,0.00,Wunderground v.1.15,2013-01-22 09:40:00,
2013-01-22 04:45:00,1.6,-4.5,30.14,WNW,295,7.0,15.0,75,0.00,,,0.00,Wunderground v.1.15,2013-01-22 09:45:00,
2013-01-22 04:50:00,1.5,-4.6,30.15,WNW,297,6.0,16.0,75,0.00,,,0.00,Wunderground v.1.15,2013-01-22 09:50:00,
2013-01-22 04:55:00,1.4,-4.4,30.15,West,276,7.0,16.0,76,0.00,,,0.00,Wunderground v.1.15,2013-01-22 09:55:00,
2013-01-22 05:00:00,1.4,-4.1,30.15,West,272,8.0,15.0,77,0.00,,,0.00,Wunderground v.1.15,2013-01-22 10:00:00,
2013-01-22 05:10:00,1.2,-3.8,30.15,WNW,289,6.0,15.0,79,0.00,,,0.00,Wunderground v.1.15,2013-01-22 10:10:00,
2013-01-22 05:15:00,1.2,-3.5,30.15,WNW,300,6.0,15.0,80,0.00,,,0.00,Wunderground v.1.15,2013-01-22 10:15:00,
2013-01-22 05:20:00,1.1,-3.4,30.16,WNW,289,6.0,15.0,81,0.00,,,0.00,Wunderground v.1.15,2013-01-22 10:20:00,
2013-01-22 05:25:00,1.1,-3.4,30.16,NW,308,7.0,15.0,81,0.00,,,0.00,Wunderground v.1.15,2013-01-22 10:25:00,
2013-01-22 05:30:00,1.1,-3.1,30.16,WNW,302,6.0,15.0,82,0.00,,,0.00,Wunderground v.1.15,2013-01-22 10:30:00,
2013-01-22 05:40:00,1.1,-2.6,30.16,NW,306,5.0,5.0,84,0.00,,,0.00,Wunderground v.1.15,2013-01-22 10:40:00,
2013-01-22 05:45:00,1.1,-2.6,30.16,NW,315,5.0,15.0,84,0.00,,,0.00,Wunderground v.1.15,2013-01-22 10:45:00,
2013-01-22 05:50:00,1.0,-2.7,30.16,NW,313,5.0,5.0,84,0.00,,,0.00,Wunderground v.1.15,2013-01-22 10:50:00,
2013-01-22 05:55:00,1.0,-2.5,30.16,WNW,286,5.0,6.0,85,0.00,,,0.00,Wunderground v.1.15,2013-01-22 10:55:00,
2013-01-22 06:00:00,1.0,-2.5,30.17,WNW,285,5.0,5.0,85,0.00,,,0.00,Wunderground v.1.15,2013-01-22 11:00:00,
2013-01-22 06:05:00,1.1,-2.4,30.17,NW,313,4.0,9.0,85,0.00,,,0.00,Wunderground v.1.15,2013-01-22 11:05:00,
2013-01-22 06:10:00,1.0,-2.5,30.17,WNW,283,5.0,15.0,85,0.00,,,0.00,Wunderground v.1.15,2013-01-22 11:10:00,
2013-01-22 06:15:00,0.7,-3.0,30.17,NW,312,6.0,15.0,84,0.00,,,0.00,Wunderground v.1.15,2013-01-22 11:15:00,
2013-01-22 06:25:00,0.3,-3.6,30.17,West,281,8.0,15.0,83,0.00,,,0.00,Wunderground v.1.15,2013-01-22 11:25:00,
2013-01-22 06:30:00,0.1,-3.8,30.17,WNW,302,9.0,15.0,83,0.00,,,0.00,Wunderground v.1.15,2013-01-22 11:30:00,
2013-01-22 06:35:00,0.0,-3.9,30.17,WNW,302,9.0,15.0,83,0.00,,,0.00,Wunderground v.1.15,2013-01-22 11:35:00,
2013-01-22 06:40:00,-0.1,-4.3,30.18,NW,317,9.0,17.0,82,0.00,,,0.00,Wunderground v.1.15,2013-01-22 11:40:00,
2013-01-22 06:45:00,-0.2,-4.4,30.18,West,279,8.0,17.0,82,0.00,,,0.00,Wunderground v.1.15,2013-01-22 11:45:00,
2013-01-22 06:50:00,-0.3,-4.5,30.18,West,273,8.0,15.0,82,0.00,,,0.00,Wunderground v.1.15,2013-01-22 11:50:00,
2013-01-22 07:00:00,-0.4,-4.6,30.18,NW,325,8.0,15.0,82,0.00,,,0.00,Wunderground v.1.15,2013-01-22 12:00:00,
2013-01-22 07:05:00,-0.4,-4.6,30.18,WSW,251,9.0,15.0,82,0.00,,,0.00,Wunderground v.1.15,2013-01-22 12:05:00,
2013-01-22 07:15:00,-0.6,-4.8,30.18,WNW,296,9.0,11.0,82,0.00,,,0.00,Wunderground v.1.15,2013-01-22 12:15:00,
2013-01-22 07:20:00,-0.7,-4.9,30.19,West,279,9.0,9.0,82,0.00,,,0.00,Wunderground v.1.15,2013-01-22 12:20:00,
2013-01-22 07:25:00,-0.7,-4.9,30.19,North,5,8.0,11.0,82,0.00,,,0.00,Wunderground v.1.15,2013-01-22 12:25:00,
2013-01-22 07:30:00,-0.7,-4.9,30.19,NW,311,8.0,10.0,82,0.00,,,0.00,Wunderground v.1.15,2013-01-22 12:30:00,
2013-01-22 07:35:00,-0.7,-4.9,30.19,WNW,301,9.0,10.0,82,0.00,,,0.00,Wunderground v.1.15,2013-01-22 12:35:00,
2013-01-22 07:40:00,-0.7,-4.9,30.20,NW,313,7.0,7.0,82,0.00,,,0.00,Wunderground v.1.15,2013-01-22 12:40:00,
2013-01-22 07:50:00,-0.7,-4.9,30.20,NW,305,7.0,8.0,82,0.00,,,0.00,Wunderground v.1.15,2013-01-22 12:50:00,
2013-01-22 07:55:00,-0.7,-4.9,30.20,North,355,7.0,8.0,82,0.00,,,0.00,Wunderground v.1.15,2013-01-22 12:55:00,
2013-01-22 08:00:00,-0.6,-4.5,30.20,WNW,302,7.0,7.0,83,0.00,,,0.00,Wunderground v.1.15,2013-01-22 13:00:00,
2013-01-22 08:05:00,-0.6,-4.5,30.20,WNW,300,6.0,25.0,83,0.00,,,0.00,Wunderground v.1.15,2013-01-22 13:05:00,
2013-01-22 08:10:00,-0.6,-4.8,30.21,NW,313,6.0,25.0,82,0.00,,,0.00,Wunderground v.1.15,2013-01-22 13:10:00,
2013-01-22 08:15:00,-0.6,-4.8,30.21,NW,307,7.0,25.0,82,0.00,,,0.00,Wunderground v.1.15,2013-01-22 13:15:00,
2013-01-22 08:20:00,-0.6,-4.8,30.22,WNW,284,8.0,25.0,82,0.00,,,0.00,Wunderground v.1.15,2013-01-22 13:20:00,
2013-01-22 08:30:00,-0.6,-5.0,30.22,NNW,328,8.0,8.0,81,0.00,,,0.00,Wunderground v.1.15,2013-01-22 13:30:00,
2013-01-22 08:35:00,-0.6,-5.3,30.22,WNW,296,8.0,9.0,80,0.00,,,0.00,Wunderground v.1.15,2013-01-22 13:35:00,
2013-01-22 08:40:00,-0.6,-5.3,30.23,North,5,9.0,9.0,80,0.00,,,0.00,Wunderground v.1.15,2013-01-22 13:40:00,
2013-01-22 08:45:00,-0.4,-5.1,30.23,West,274,7.0,25.0,80,0.00,,,0.00,Wunderground v.1.15,2013-01-22 13:45:00,
2013-01-22 08:50:00,-0.3,-5.0,30.23,WNW,297,6.0,25.0,80,0.00,,,0.00,Wunderground v.1.15,2013-01-22 13:50:00,
2013-01-22 08:55:00,-0.4,-5.4,30.22,WNW,290,8.0,25.0,79,0.00,,,0.00,Wunderground v.1.15,2013-01-22 13:55:00,
2013-01-22 09:05:00,-0.1,-5.1,30.23,NW,317,9.0,25.0,79,0.00,,,0.00,Wunderground v.1.15,2013-01-22 14:05:00,
2013-01-22 09:10:00,0.0,-5.0,30.24,NW,307,9.0,25.0,79,0.00,,,0.00,Wunderground v.1.15,2013-01-22 14:10:00,
2013-01-22 09:15:00,0.2,-4.8,30.24,NW,315,8.0,25.0,79,0.00,,,0.00,Wunderground v.1.15,2013-01-22 14:15:00,
2013-01-22 09:20:00,0.5,-4.2,30.24,West,281,5.0,5.0,80,0.00,,,0.00,Wunderground v.1.15,2013-01-22 14:20:00,
2013-01-22 09:25:00,0.8,-3.9,30.24,NNW,344,4.0,25.0,80,0.00,,,0.00,Wunderground v.1.15,2013-01-22 14:25:00,
2013-01-22 09:30:00,0.8,-4.2,30.25,SSW,192,6.0,6.0,79,0.00,,,0.00,Wunderground v.1.15,2013-01-22 14:30:00,
2013-01-22 09:35:00,1.0,-4.3,30.25,WNW,297,6.0,25.0,78,0.00,,,0.00,Wunderground v.1.15,2013-01-22 14:35:00,
2013-01-22 09:40:00,0.9,-4.6,30.26,WNW,293,6.0,6.0,77,0.00,,,0.00,Wunderground v.1.15,2013-01-22 14:40:00,
2013-01-22 09:45:00,0.8,-4.7,30.26,WNW,288,8.0,8.0,77,0.00,,,0.00,Wunderground v.1.15,2013-01-22 14:45:00,
2013-01-22 09:50:00,0.7,-4.8,30.27,WNW,296,8.0,25.0,77,0.00,,,0.00,Wunderground v.1.15,2013-01-22 14:50:00,
2013-01-22 10:00:00,0.9,-4.9,30.27,NNW,338,7.0,7.0,76,0.00,,,0.00,Wunderground v.1.15,2013-01-22 15:00:00,
2013-01-22 10:05:00,1.1,-4.7,30.28,WNW,302,6.0,25.0,76,0.00,,,0.00,Wunderground v.1.15,2013-01-22 15:05:00,
2013-01-22 10:10:00,1.3,-4.0,30.28,SSE,168,4.0,4.0,78,0.00,,,0.00,Wunderground v.1.15,2013-01-22 15:10:00,
2013-01-22 10:15:00,1.6,-4.2,30.28,NNW,339,5.0,5.0,76,0.00,,,0.00,Wunderground v.1.15,2013-01-22 15:15:00,
2013-01-22 10:25:00,1.8,-4.0,30.29,WNW,285,6.0,25.0,76,0.00,,,0.00,Wunderground v.1.15,2013-01-22 15:25:00,
2013-01-22 10:30:00,1.8,-4.9,30.29,NNW,342,6.0,6.0,73,0.00,,,0.00,Wunderground v.1.15,2013-01-22 15:30:00,
2013-01-22 10:35:00,2.0,-4.7,30.29,NW,318,7.0,7.0,73,0.00,,,0.00,Wunderground v.1.15,2013-01-22 15:35:00,
2013-01-22 10:40:00,2.1,-4.6,30.30,NW,309,5.0,5.0,73,0.00,,,0.00,Wunderground v.1.15,2013-01-22 15:40:00,
2013-01-22 10:50:00,2.4,-4.3,30.30,WNW,289,3.0,25.0,73,0.00,,,0.00,Wunderground v.1.15,2013-01-22 15:50:00,
2013-01-22 10:55:00,2.4,-4.6,30.30,WSW,257,5.0,25.0,72,0.00,,,0.00,Wunderground v.1.15,2013-01-22 15:55:00,
2013-01-22 11:00:00,2.1,-5.2,30.30,NNW,338,7.0,7.0,71,0.00,,,0.00,Wunderground v.1.15,2013-01-22 16:00:00,
2013-01-22 11:10:00,3.4,-3.0,30.30,NNE,17,3.0,3.0,74,0.00,,,0.00,Wunderground v.1.15,2013-01-22 16:10:00,
2013-01-22 11:15:00,4.5,-2.3,30.30,WNW,296,2.0,4.0,73,0.00,,,0.00,Wunderground v.1.15,2013-01-22 16:15:00,
2013-01-22 11:20:00,4.3,-3.6,30.30,West,266,4.0,25.0,69,0.00,,,0.00,Wunderground v.1.15,2013-01-22 16:20:00,
2013-01-22 11:25:00,4.1,-4.1,30.30,WNW,296,6.0,25.0,68,0.00,,,0.00,Wunderground v.1.15,2013-01-22 16:25:00,
2013-01-22 11:30:00,3.3,-4.9,30.30,SSW,211,6.0,25.0,68,0.00,,,0.00,Wunderground v.1.15,2013-01-22 16:30:00,
2013-01-22 11:40:00,3.0,-4.9,30.30,NW,324,5.0,25.0,69,0.00,,,0.00,Wunderground v.1.15,2013-01-22 16:40:00,
2013-01-22 11:45:00,3.3,-4.0,30.30,WNW,284,4.0,25.0,71,0.00,,,0.00,Wunderground v.1.15,2013-01-22 16:45:00,
2013-01-22 11:50:00,3.5,-3.8,30.30,West,268,4.0,25.0,71,0.00,,,0.00,Wunderground v.1.15,2013-01-22 16:50:00,
2013-01-22 11:55:00,3.5,-3.8,30.30,NNE,22,4.0,25.0,71,0.00,,,0.00,Wunderground v.1.15,2013-01-22 16:55:00,
2013-01-22 12:00:00,3.5,-4.4,30.30,NNW,344,5.0,5.0,69,0.00,,,0.00,Wunderground v.1.15,2013-01-22 17:00:00,
2013-01-22 12:10:00,3.5,-4.4,30.29,NNW,344,7.0,7.0,69,0.00,,,0.00,Wunderground v.1.15,2013-01-22 17:10:00,
2013-01-22 12:15:00,3.5,-4.1,30.29,West,277,7.0,10.0,70,0.00,,,0.00,Wunderground v.1.15,2013-01-22 17:15:00,
2013-01-22 12:20:00,3.8,-4.1,30.28,NW,312,7.0,7.0,69,0.00,,,0.00,Wunderground v.1.15,2013-01-22 17:20:00,
2013-01-22 12:25:00,4.4,-3.5,30.29,WNW,300,6.0,25.0,69,0.00,,,0.00,Wunderground v.1.15,2013-01-22 17:25:00,
2013-01-22 12:30:00,4.6,-3.0,30.29,NW,312,4.0,4.0,70,0.00,,,0.00,Wunderground v.1.15,2013-01-22 17:30:00,
2013-01-22 12:35:00,4.5,-3.4,30.28,West,272,5.0,5.0,69,0.00,,,0.00,Wunderground v.1.15,2013-01-22 17:35:00,
2013-01-22 12:40:00,5.0,-2.7,30.28,West,269,6.0,25.0,70,0.00,,,0.00,Wunderground v.1.15,2013-01-22 17:40:00,
2013-01-22 12:50:00,5.6,-3.0,30.28,West,274,6.0,6.0,67,0.00,,,0.00,Wunderground v.1.15,2013-01-22 17:50:00,
2013-01-22 12:55:00,6.0,-3.3,30.28,West,274,6.0,7.0,65,0.00,,,0.00,Wunderground v.1.15,2013-01-22 17:55:00,
2013-01-22 13:00:00,5.8,-3.4,30.28,SW,217,6.0,25.0,65,0.00,,,0.00,Wunderground v.1.15,2013-01-22 18:00:00,
2013-01-22 13:05:00,5.4,-3.5,30.28,NNW,332,8.0,25.0,66,0.00,,,0.00,Wunderground v.1.15,2013-01-22 18:05:00,
2013-01-22 13:10:00,5.4,-3.2,30.28,NW,319,9.0,9.0,67,0.00,,,0.00,Wunderground v.1.15,2013-01-22 18:10:00,
2013-01-22 13:15:00,5.6,-3.0,30.28,West,269,8.0,17.0,67,0.00,,,0.00,Wunderground v.1.15,2013-01-22 18:15:00,
2013-01-22 13:20:00,5.6,-3.3,30.28,WNW,296,8.0,8.0,66,0.00,,,0.00,Wunderground v.1.15,2013-01-22 18:20:00,
2013-01-22 13:30:00,6.6,-2.0,30.27,NW,309,5.0,5.0,67,0.00,,,0.00,Wunderground v.1.15,2013-01-22 18:30:00,
2013-01-22 13:35:00,6.5,-2.5,30.27,West,269,6.0,8.0,66,0.00,,,0.00,Wunderground v.1.15,2013-01-22 18:35:00,
2013-01-22 13:40:00,6.3,-2.3,30.27,WSW,244,7.0,7.0,67,0.00,,,0.00,Wunderground v.1.15,2013-01-22 18:40:00,
2013-01-22 13:45:00,6.2,-3.1,30.27,WSW,252,8.0,8.0,65,0.00,,,0.00,Wunderground v.1.15,2013-01-22 18:45:00,
2013-01-22 13:50:00,6.2,-3.1,30.27,WNW,302,7.0,25.0,65,0.00,,,0.00,Wunderground v.1.15,2013-01-22 18:50:00,
2013-01-22 14:00:00,6.3,-3.0,30.27,NW,320,7.0,7.0,65,0.00,,,0.00,Wunderground v.1.15,2013-01-22 19:00:00,
2013-01-22 14:05:00,6.6,-3.0,30.27,NW,304,6.0,20.0,64,0.00,,,0.00,Wunderground v.1.15,2013-01-22 19:05:00,
2013-01-22 14:10:00,7.5,-1.8,30.28,WNW,285,5.0,20.0,65,0.00,,,0.00,Wunderground v.1.15,2013-01-22 19:10:00,
2013-01-22 14:20:00,7.7,-1.3,30.28,WNW,298,5.0,20.0,66,0.00,,,0.00,Wunderground v.1.15,2013-01-22 19:20:00,
2013-01-22 14:25:00,7.2,-2.4,30.28,WNW,296,5.0,20.0,64,0.00,,,0.00,Wunderground v.1.15,2013-01-22 19:25:00,
2013-01-22 14:35:00,7.5,-2.5,30.28,NW,317,4.0,20.0,63,0.00,,,0.00,Wunderground v.1.15,2013-01-22 19:35:00,
2013-01-22 14:40:00,7.7,-2.6,30.29,NNW,343,3.0,3.0,62,0.00,,,0.00,Wunderground v.1.15,2013-01-22 19:40:00,
2013-01-22 14:45:00,7.7,-3.0,30.29,NW,317,3.0,20.0,61,0.00,,,0.00,Wunderground v.1.15,2013-01-22 19:45:00,
2013-01-22 14:55:00,8.1,-2.6,30.29,NNW,333,3.0,20.0,61,0.00,,,0.00,Wunderground v.1.15,2013-01-22 19:55:00,
2013-01-22 15:00:00,7.9,-3.1,30.29,NE,38,4.0,4.0,60,0.00,,,0.00,Wunderground v.1.15,2013-01-22 20:00:00,
2013-01-22 15:05:00,8.0,-2.7,30.29,NW,309,4.0,6.0,61,0.00,,,0.00,Wunderground v.1.15,2013-01-22 20:05:00,
2013-01-22 15:10:00,8.0,-3.0,30.29,NNE,22,3.0,20.0,60,0.00,,,0.00,Wunderground v.1.15,2013-01-22 20:10:00,
2013-01-22 15:15:00,7.7,-3.3,30.29,NNW,327,4.0,20.0,60,0.00,,,0.00,Wunderground v.1.15,2013-01-22 20:15:00,
2013-01-22 15:25:00,8.1,-2.9,30.29,NNW,330,3.0,20.0,60,0.00,,,0.00,Wunderground v.1.15,2013-01-22 20:25:00,
2013-01-22 15:30:00,7.8,-4.3,30.30,WNW,301,4.0,4.0,57,0.00,,,0.00,Wunderground v.1.15,2013-01-22 20:30:00,
2013-01-22 15:35:00,7.7,-4.4,30.29,NW,315,5.0,5.0,57,0.00,,,0.00,Wunderground v.1.15,2013-01-22 20:35:00,
2013-01-22 15:40:00,7.7,-4.0,30.30,NNW,342,4.0,4.0,58,0.00,,,0.00,Wunderground v.1.15,2013-01-22 20:40:00,
2013-01-22 15:50:00,7.7,-4.4,30.30,West,260,5.0,20.0,57,0.00,,,0.00,Wunderground v.1.15,2013-01-22 20:50:00,
2013-01-22 16:00:00,7.4,-4.3,30.30,NNW,340,5.0,5.0,58,0.00,,,0.00,Wunderground v.1.15,2013-01-22 21:00:00,
2013-01-22 16:05:00,7.6,-4.5,30.31,WNW,297,4.0,6.0,57,0.00,,,0.00,Wunderground v.1.15,2013-01-22 21:05:00,
2013-01-22 16:15:00,7.7,-4.4,30.31,NNE,18,3.0,20.0,57,0.00,,,0.00,Wunderground v.1.15,2013-01-22 21:15:00,
2013-01-22 16:20:00,7.6,-4.5,30.32,NW,308,4.0,4.0,57,0.00,,,0.00,Wunderground v.1.15,2013-01-22 21:20:00,
2013-01-22 16:25:00,7.7,-4.8,30.32,West,265,3.0,20.0,56,0.00,,,0.00,Wunderground v.1.15,2013-01-22 21:25:00,
2013-01-22 16:30:00,7.3,-4.8,30.32,NW,326,4.0,4.0,57,0.00,,,0.00,Wunderground v.1.15,2013-01-22 21:30:00,
2013-01-22 16:35:00,7.2,-4.9,30.33,North,355,4.0,20.0,57,0.00,,,0.00,Wunderground v.1.15,2013-01-22 21:35:00,
2013-01-22 16:40:00,7.1,-5.0,30.33,WNW,289,3.0,20.0,57,0.00,,,0.00,Wunderground v.1.15,2013-01-22 21:40:00,
2013-01-22 16:50:00,6.7,-5.0,30.33,NW,304,3.0,3.0,58,0.00,,,0.00,Wunderground v.1.15,2013-01-22 21:50:00,
2013-01-22 16:55:00,6.8,-4.5,30.33,NNW,338,2.0,20.0,59,0.00,,,0.00,Wunderground v.1.15,2013-01-22 21:55:00,
2013-01-22 17:05:00,6.2,-5.4,30.34,WNW,296,3.0,3.0,58,0.00,,,0.00,Wunderground v.1.15,2013-01-22 22:05:00,
2013-01-22 17:10:00,5.9,-5.0,30.34,WNW,301,3.0,20.0,60,0.00,,,0.00,Wunderground v.1.15,2013-01-22 22:10:00,
2013-01-22 17:15:00,5.7,-5.2,30.34,West,269,2.0,20.0,60,0.00,,,0.00,Wunderground v.1.15,2013-01-22 22:15:00,
2013-01-22 17:20:00,5.6,-5.0,30.34,NW,304,2.0,2.0,61,0.00,,,0.00,Wunderground v.1.15,2013-01-22 22:20:00,
2013-01-22 17:30:00,5.2,-5.0,30.35,WSW,248,2.0,2.0,62,0.00,,,0.00,Wunderground v.1.15,2013-01-22 22:30:00,
2013-01-22 17:35:00,5.0,-4.9,30.35,WNW,297,3.0,4.0,63,0.00,,,0.00,Wunderground v.1.15,2013-01-22 22:35:00,
2013-01-22 17:40:00,4.8,-4.7,30.35,WNW,291,2.0,20.0,64,0.00,,,0.00,Wunderground v.1.15,2013-01-22 22:40:00,
2013-01-22 17:50:00,4.7,-4.8,30.35,WNW,290,3.0,3.0,64,0.00,,,0.00,Wunderground v.1.15,2013-01-22 22:50:00,
2013-01-22 17:55:00,4.6,-4.9,30.35,West,273,3.0,8.0,64,0.00,,,0.00,Wunderground v.1.15,2013-01-22 22:55:00,
2013-01-22 18:00:00,4.6,-4.9,30.35,West,273,4.0,20.0,64,0.00,,,0.00,Wunderground v.1.15,2013-01-22 23:00:00,
2013-01-22 18:05:00,4.5,-5.0,30.36,WNW,303,5.0,20.0,64,0.00,,,0.00,Wunderground v.1.15,2013-01-22 23:05:00,
2013-01-22 18:10:00,4.6,-4.9,30.36,WNW,292,4.0,4.0,64,0.00,,,0.00,Wunderground v.1.15,2013-01-22 23:10:00,
2013-01-22 18:15:00,4.5,-5.0,30.36,NW,319,3.0,20.0,64,0.00,,,0.00,Wunderground v.1.15,2013-01-22 23:15:00,
2013-01-22 18:25:00,4.4,-4.8,30.37,WNW,300,3.0,20.0,65,0.00,,,0.00,Wunderground v.1.15,2013-01-22 23:25:00,
2013-01-22 18:30:00,4.4,-4.8,30.37,WNW,296,3.0,3.0,65,0.00,,,0.00,Wunderground v.1.15,2013-01-22 23:30:00,
2013-01-22 18:35:00,4.4,-4.8,30.37,West,273,3.0,20.0,65,0.00,,,0.00,Wunderground v.1.15,2013-01-22 23:35:00,
2013-01-22 18:40:00,4.4,-4.8,30.37,WNW,303,3.0,20.0,65,0.00,,,0.00,Wunderground v.1.15,2013-01-22 23:40:00,
2013-01-22 18:45:00,4.4,-4.8,30.38,West,271,3.0,20.0,65,0.00,,,0.00,Wunderground v.1.15,2013-01-22 23:45:00,
2013-01-22 18:50:00,4.4,-4.8,30.38,West,279,4.0,20.0,65,0.00,,,0.00,Wunderground v.1.15,2013-01-22 23:50:00,
2013-01-22 19:00:00,4.1,-4.8,30.38,West,278,2.0,2.0,66,0.00,,,0.00,Wunderground v.1.15,2013-01-23 00:00:00,
2013-01-22 19:05:00,4.1,-4.8,30.38,WNW,288,2.0,20.0,66,0.00,,,0.00,Wunderground v.1.15,2013-01-23 00:05:00,
2013-01-22 19:10:00,4.0,-4.8,30.38,West,279,3.0,20.0,66,0.00,,,0.00,Wunderground v.1.15,2013-01-23 00:10:00,
2013-01-22 19:20:00,3.9,-4.6,30.38,West,275,3.0,3.0,67,0.00,,,0.00,Wunderground v.1.15,2013-01-23 00:20:00,
2013-01-22 19:25:00,3.7,-4.8,30.38,WNW,301,2.0,7.0,67,0.00,,,0.00,Wunderground v.1.15,2013-01-23 00:25:00,
2013-01-22 19:30:00,3.7,-4.8,30.39,West,270,3.0,20.0,67,0.00,,,0.00,Wunderground v.1.15,2013-01-23 00:30:00,
2013-01-22 19:35:00,3.8,-4.7,30.39,WNW,291,3.0,20.0,67,0.00,,,0.00,Wunderground v.1.15,2013-01-23 00:35:00,
2013-01-22 19:40:00,3.6,-4.9,30.39,SW,233,2.0,20.0,67,0.00,,,0.00,Wunderground v.1.15,2013-01-23 00:40:00,
2013-01-22 19:50:00,3.7,-4.5,30.39,WNW,284,4.0,20.0,68,0.00,,,0.00,Wunderground v.1.15,2013-01-23 00:50:00,
2013-01-22 19:55:00,3.6,-4.6,30.39,NW,304,3.0,20.0,68,0.00,,,0.00,Wunderground v.1.15,2013-01-23 00:55:00,
2013-01-22 20:00:00,3.6,-4.6,30.39,NW,321,4.0,4.0,68,0.00,,,0.00,Wunderground v.1.15,2013-01-23 01:00:00,
2013-01-22 20:05:00,3.6,-4.6,30.39,SW,227,4.0,5.0,68,0.00,,,0.00,Wunderground v.1.15,2013-01-23 01:05:00,
2013-01-22 20:10:00,3.6,-4.6,30.39,NW,311,4.0,4.0,68,0.00,,,0.00,Wunderground v.1.15,2013-01-23 01:10:00,
2013-01-22 20:20:00,3.6,-4.6,30.40,West,281,4.0,20.0,68,0.00,,,0.00,Wunderground v.1.15,2013-01-23 01:20:00,
2013-01-22 20:30:00,3.7,-4.2,30.40,WNW,290,6.0,20.0,69,0.00,,,0.00,Wunderground v.1.15,2013-01-23 01:30:00,
2013-01-22 20:35:00,3.7,-4.2,30.40,NW,316,5.0,20.0,69,0.00,,,0.00,Wunderground v.1.15,2013-01-23 01:35:00,
2013-01-22 20:40:00,3.7,-4.2,30.40,WNW,300,5.0,5.0,69,0.00,,,0.00,Wunderground v.1.15,2013-01-23 01:40:00,
2013-01-22 20:50:00,3.5,-4.4,30.40,WNW,287,4.0,20.0,69,0.00,,,0.00,Wunderground v.1.15,2013-01-23 01:50:00,
2013-01-22 20:55:00,3.5,-4.1,30.40,NW,310,5.0,20.0,70,0.00,,,0.00,Wunderground v.1.15,2013-01-23 01:55:00,
2013-01-22 21:00:00,3.5,-4.1,30.40,NW,312,5.0,20.0,70,0.00,,,0.00,Wunderground v.1.15,2013-01-23 02:00:00,
2013-01-22 21:05:00,3.4,-4.2,30.40,WNW,286,5.0,20.0,70,0.00,,,0.00,Wunderground v.1.15,2013-01-23 02:05:00,
2013-01-22 21:10:00,3.4,-4.2,30.40,West,271,6.0,20.0,70,0.00,,,0.00,Wunderground v.1.15,2013-01-23 02:10:00,
2013-01-22 21:15:00,3.4,-4.2,30.40,WNW,300,7.0,20.0,70,0.00,,,0.00,Wunderground v.1.15,2013-01-23 02:15:00,
2013-01-22 21:25:00,3.3,-4.0,30.40,West,275,5.0,20.0,71,0.00,,,0.00,Wunderground v.1.15,2013-01-23 02:25:00,
2013-01-22 21:30:00,3.3,-4.0,30.39,West,277,4.0,20.0,71,0.00,,,0.00,Wunderground v.1.15,2013-01-23 02:30:00,
2013-01-22 21:40:00,3.3,-3.7,30.40,WNW,290,4.0,4.0,72,0.00,,,0.00,Wunderground v.1.15,2013-01-23 02:40:00,
2013-01-22 21:45:00,3.3,-4.0,30.39,NW,313,4.0,20.0,71,0.00,,,0.00,Wunderground v.1.15,2013-01-23 02:45:00,
2013-01-22 21:55:00,3.4,-3.9,30.40,West,279,4.0,20.0,71,0.00,,,0.00,Wunderground v.1.15,2013-01-23 02:55:00,
2013-01-22 22:00:00,3.3,-3.7,30.40,NW,312,3.0,3.0,72,0.00,,,0.00,Wunderground v.1.15,2013-01-23 03:00:00,
2013-01-22 22:05:00,3.3,-3.7,30.39,WNW,287,3.0,20.0,72,0.00,,,0.00,Wunderground v.1.15,2013-01-23 03:05:00,
2013-01-22 22:10:00,3.3,-3.7,30.40,South,189,4.0,4.0,72,0.00,,,0.00,Wunderground v.1.15,2013-01-23 03:10:00,
2013-01-22 22:15:00,3.3,-3.7,30.40,WNW,297,3.0,20.0,72,0.00,,,0.00,Wunderground v.1.15,2013-01-23 03:15:00,
2013-01-22 22:20:00,3.3,-3.7,30.40,West,273,3.0,20.0,72,0.00,,,0.00,Wunderground v.1.15,2013-01-23 03:20:00,
2013-01-22 22:30:00,3.2,-3.8,30.40,WNW,300,4.0,4.0,72,0.00,,,0.00,Wunderground v.1.15,2013-01-23 03:30:00,
2013-01-22 22:35:00,3.2,-3.8,30.40,NW,315,2.0,6.0,72,0.00,,,0.00,Wunderground v.1.15,2013-01-23 03:35:00,
2013-01-22 22:45:00,3.2,-3.5,30.40,NW,319,4.0,9.0,73,0.00,,,0.00,Wunderground v.1.15,2013-01-23 03:45:00,
2013-01-22 22:50:00,3.2,-3.8,30.40,WNW,303,4.0,4.0,72,0.00,,,0.00,Wunderground v.1.15,2013-01-23 03:50:00,
2013-01-22 22:55:00,3.1,-3.9,30.40,West,268,5.0,6.0,72,0.00,,,0.00,Wunderground v.1.15,2013-01-23 03:55:00,
2013-01-22 23:00:00,3.1,-3.6,30.40,WSW,247,3.0,20.0,73,0.00,,,0.00,Wunderground v.1.15,2013-01-23 04:00:00,
2013-01-22 23:05:00,3.1,-3.6,30.41,NW,307,4.0,20.0,73,0.00,,,0.00,Wunderground v.1.15,2013-01-23 04:05:00,
2013-01-22 23:10:00,3.0,-3.7,30.40,NNW,327,4.0,4.0,73,0.00,,,0.00,Wunderground v.1.15,2013-01-23 04:10:00,
2013-01-22 23:15:00,3.0,-3.7,30.41,West,269,3.0,20.0,73,0.00,,,0.00,Wunderground v.1.15,2013-01-23 04:15:00,
2013-01-22 23:25:00,2.9,-3.8,30.41,NW,308,2.0,20.0,73,0.00,,,0.00,Wunderground v.1.15,2013-01-23 04:25:00,
2013-01-22 23:30:00,2.9,-3.5,30.41,WNW,296,3.0,3.0,74,0.00,,,0.00,Wunderground v.1.15,2013-01-23 04:30:00,
2013-01-22 23:35:00,2.9,-3.5,30.40,NW,308,3.0,20.0,74,0.00,,,0.00,Wunderground v.1.15,2013-01-23 04:35:00,
2013-01-22 23:40:00,2.8,-3.6,30.40,WNW,297,3.0,20.0,74,0.00,,,0.00,Wunderground v.1.15,2013-01-23 04:40:00,
2013-01-22 23:45:00,2.7,-3.7,30.40,WNW,291,2.0,20.0,74,0.00,,,0.00,Wunderground v.1.15,2013-01-23 04:45:00,
2013-01-22 23:55:00,2.6,-3.5,30.40,NW,311,3.0,20.0,75,0.00,,,0.00,Wunderground v.1.15,2013-01-23 04:55:00,